| time (UTC) | temp F | wind direction | speed knots | gust knots | rain 1hr in | rain 24hr in | rain mn in | humidity % | barometer mb |
| 20260902055701 | 59 | 155 | 0.0 | 0.0 | 0.00 | 0.00 | 0.00 | 53 | 1020.6 |
| 20260902054702 | 59 | 155 | 0.0 | 0.0 | 0.00 | 0.00 | 0.00 | 53 | 1020.4 |
| 20260902053701 | 59 | 155 | 0.0 | 0.0 | 0.00 | 0.00 | 0.00 | 53 | 1020.3 |
| 20260902052701 | 59 | 155 | 0.0 | 0.0 | 0.00 | 0.00 | 0.00 | 53 | 1020.2 |
| 20260902051702 | 59 | 55 | 0.0 | 0.0 | 0.00 | 0.00 | 0.00 | 54 | 1020.1 |
| 20260902050702 | 59 | 55 | 0.0 | 0.9 | 0.00 | 0.00 | 0.00 | 54 | 1020.0 |
| 20260902050151 | 59 | 55 | 0.0 | 0.9 | 0.00 | 0.00 | 0.00 | 54 | 1020.0 |
| 20260902044701 | 58 | 93 | 0.0 | 0.0 | 0.00 | 0.00 | 0.00 | 55 | 1020.0 |
| 20260902043701 | 57 | 130 | 0.0 | 0.0 | 0.00 | 0.00 | 0.00 | 56 | 1019.9 |
| 20260902042702 | 57 | 42 | 0.0 | 0.0 | 0.00 | 0.00 | 0.00 | 57 | 1019.9 |
| 20260902042134 | 56 | 42 | 0.0 | 0.0 | 0.00 | 0.00 | 0.00 | 58 | 1019.8 |
| 20260902040701 | 56 | 42 | 0.0 | 0.0 | 0.00 | 0.00 | 0.00 | 59 | 1019.8 |
| 20260902035701 | 56 | 42 | 0.0 | 0.0 | 0.00 | 0.00 | 0.00 | 60 | 1019.8 |
| 20260902034701 | 56 | 42 | 0.0 | 0.0 | 0.00 | 0.00 | 0.00 | 60 | 1019.6 |
| 20260902033701 | 56 | 42 | 0.0 | 0.0 | 0.00 | 0.00 | 0.00 | 61 | 1019.6 |
| 20260902032701 | 56 | 42 | 0.0 | 0.0 | 0.00 | 0.00 | 0.00 | 61 | 1019.5 |
| 20260902031701 | 57 | 42 | 0.0 | 0.0 | 0.00 | 0.00 | 0.00 | 62 | 1019.4 |
| 20260902030701 | 57 | 42 | 0.0 | 0.0 | 0.00 | 0.00 | 0.00 | 62 | 1019.2 |
| 20260902025701 | 58 | 42 | 0.0 | 0.0 | 0.00 | 0.00 | 0.00 | 62 | 1019.0 |
| 20260902024701 | 58 | 42 | 0.0 | 0.0 | 0.00 | 0.00 | 0.00 | 63 | 1019.1 |
| 20260902023701 | 58 | 42 | 0.0 | 0.0 | 0.00 | 0.00 | 0.00 | 63 | 1019.1 |
| 20260902022658 | 59 | 42 | 0.0 | 0.0 | 0.00 | 0.00 | 0.00 | 64 | 1019.2 |
| 20260902021657 | 59 | 42 | 0.0 | 0.0 | 0.00 | 0.00 | 0.00 | 65 | 1019.1 |
| 20260902021137 | 60 | 269 | 0.0 | 0.0 | 0.00 | 0.00 | 0.00 | 64 | 1019.1 |
| 20260902015657 | 61 | 290 | 0.0 | 0.0 | 0.00 | 0.00 | 0.00 | 65 | 1019.0 |
| 20260902014656 | 62 | 207 | 0.0 | 0.0 | 0.00 | 0.00 | 0.00 | 66 | 1018.8 |
| 20260902013657 | 62 | 146 | 0.0 | 0.9 | 0.00 | 0.00 | 0.00 | 66 | 1019.0 |
| 20260902013149 | 62 | 172 | 0.9 | 3.5 | 0.00 | 0.00 | 0.00 | 66 | 1019.2 |
| 20260902011657 | 62 | 171 | 0.9 | 3.5 | 0.00 | 0.00 | 0.00 | 67 | 1019.1 |
| 20260902010657 | 62 | 229 | 0.9 | 3.5 | 0.00 | 0.00 | 0.00 | 68 | 1018.9 |
| 20260902005657 | 62 | 198 | 0.9 | 3.5 | 0.00 | 0.00 | 0.00 | 69 | 1018.8 |
| 20260902004656 | 63 | 232 | 0.9 | 3.5 | 0.00 | 0.00 | 0.00 | 69 | 1018.8 |
| 20260902003657 | 63 | 173 | 0.9 | 2.6 | 0.00 | 0.00 | 0.00 | 70 | 1018.6 |
| 20260902002657 | 63 | 193 | 0.9 | 3.5 | 0.00 | 0.00 | 0.00 | 71 | 1018.5 |
| 20260902001657 | 64 | 225 | 0.9 | 5.2 | 0.00 | 0.00 | 0.00 | 72 | 1018.4 |
| 20260902000657 | 64 | 106 | 0.9 | 6.1 | 0.00 | 0.00 | 0.00 | 73 | 1018.3 |
| 20260901235657 | 65 | 188 | 0.9 | 3.5 | 0.00 | 0.00 | 0.00 | 74 | 1018.2 |
| 20260901234656 | 65 | 215 | 0.9 | 4.3 | 0.00 | 0.00 | 0.00 | 75 | 1018.2 |
| 20260901233656 | 66 | 134 | 0.9 | 3.5 | 0.00 | 0.00 | 0.00 | 75 | 1018.1 |
| 20260901233143 | 67 | 123 | 0.9 | 3.5 | 0.00 | 0.00 | 0.00 | 75 | 1018.1 |
| 20260901232611 | 67 | 132 | 0.9 | 6.1 | 0.00 | 0.00 | 0.00 | 75 | 1018.1 |
| 20260901230656 | 68 | 90 | 1.7 | 6.1 | 0.00 | 0.00 | 0.00 | 75 | 1018.1 |
| 20260901225657 | 68 | 127 | 1.7 | 6.1 | 0.00 | 0.00 | 0.00 | 74 | 1018.0 |
| 20260901224653 | 69 | 200 | 0.9 | 6.1 | 0.00 | 0.00 | 0.00 | 74 | 1018.0 |
| 20260901223652 | 69 | 121 | 2.6 | 6.1 | 0.00 | 0.00 | 0.00 | 74 | 1017.9 |
| 20260901222653 | 69 | 121 | 0.9 | 7.0 | 0.00 | 0.00 | 0.00 | 74 | 1017.9 |
| 20260901221653 | 69 | 98 | 2.6 | 6.1 | 0.00 | 0.00 | 0.00 | 74 | 1017.8 |
| 20260901220653 | 70 | 211 | 1.7 | 8.7 | 0.00 | 0.00 | 0.00 | 73 | 1017.7 |
| 20260901215652 | 70 | 70 | 2.6 | 8.7 | 0.00 | 0.00 | 0.00 | 73 | 1017.6 |
| 20260901214653 | 70 | 107 | 2.6 | 7.8 | 0.00 | 0.00 | 0.00 | 73 | 1017.5 |
| 20260901214132 | 71 | 74 | 2.6 | 8.7 | 0.00 | 0.00 | 0.00 | 72 | 1017.3 |
| 20260901212652 | 71 | 175 | 2.6 | 8.7 | 0.00 | 0.00 | 0.00 | 71 | 1017.2 |
| 20260901211652 | 72 | 77 | 2.6 | 8.7 | 0.00 | 0.00 | 0.00 | 70 | 1017.2 |
| 20260901210653 | 74 | 208 | 3.5 | 8.7 | 0.00 | 0.00 | 0.00 | 67 | 1017.3 |
| 20260901205652 | 75 | 140 | 3.5 | 7.0 | 0.00 | 0.00 | 0.00 | 63 | 1017.0 |
| 20260901205127 | 76 | 82 | 0.9 | 5.2 | 0.00 | 0.00 | 0.00 | 57 | 1016.9 |
| 20260901203648 | 76 | 355 | 0.0 | 1.7 | 0.00 | 0.00 | 0.00 | 60 | 1016.7 |
| 20260901202646 | 75 | 288 | 0.0 | 0.9 | 0.00 | 0.00 | 0.00 | 58 | 1016.6 |
| 20260901201646 | 76 | 288 | 0.9 | 3.5 | 0.00 | 0.00 | 0.00 | 52 | 1016.6 |
| 20260901200647 | 77 | 119 | 1.7 | 5.2 | 0.00 | 0.00 | 0.00 | 52 | 1016.7 |
| 20260901195646 | 76 | 80 | 1.7 | 6.1 | 0.00 | 0.00 | 0.00 | 55 | 1016.8 |
| 20260901194646 | 76 | 64 | 2.6 | 7.0 | 0.00 | 0.00 | 0.00 | 54 | 1016.7 |
| 20260901193646 | 76 | 71 | 2.6 | 7.0 | 0.00 | 0.00 | 0.00 | 56 | 1016.8 |
| 20260901192645 | 76 | 82 | 3.5 | 7.8 | 0.00 | 0.00 | 0.00 | 55 | 1016.9 |
| 20260901191644 | 77 | 72 | 2.6 | 7.8 | 0.00 | 0.00 | 0.00 | 55 | 1017.0 |
| 20260901190644 | 77 | 22 | 0.9 | 3.5 | 0.00 | 0.00 | 0.00 | 57 | 1017.1 |
| 20260901185642 | 76 | 116 | 2.6 | 7.8 | 0.00 | 0.00 | 0.00 | 53 | 1017.2 |
| 20260901184643 | 76 | 32 | 3.5 | 7.8 | 0.00 | 0.00 | 0.00 | 57 | 1017.2 |
| 20260901183640 | 76 | 56 | 1.7 | 8.7 | 0.00 | 0.00 | 0.00 | 54 | 1017.0 |
| 20260901182639 | 75 | 259 | 0.9 | 5.2 | 0.00 | 0.00 | 0.00 | 57 | 1017.1 |
| 20260901181637 | 75 | 24 | 3.5 | 7.8 | 0.00 | 0.00 | 0.00 | 58 | 1017.0 |
| 20260901180636 | 74 | 26 | 3.5 | 7.8 | 0.00 | 0.00 | 0.00 | 59 | 1017.0 |
| 20260901175633 | 74 | 83 | 2.6 | 7.8 | 0.00 | 0.00 | 0.00 | 60 | 1017.0 |
| 20260901175114 | 74 | 41 | 3.5 | 8.7 | 0.00 | 0.00 | 0.00 | 63 | 1017.0 |
| 20260901173632 | 74 | 54 | 2.6 | 7.8 | 0.00 | 0.00 | 0.00 | 63 | 1017.1 |
| 20260901172632 | 73 | 80 | 3.5 | 7.8 | 0.00 | 0.00 | 0.00 | 66 | 1017.1 |
| 20260901171634 | 73 | 40 | 4.3 | 8.7 | 0.00 | 0.00 | 0.00 | 64 | 1017.2 |
| 20260901170632 | 73 | 76 | 1.7 | 7.8 | 0.00 | 0.00 | 0.00 | 67 | 1017.2 |
| 20260901165632 | 72 | 64 | 2.6 | 7.0 | 0.00 | 0.00 | 0.00 | 69 | 1017.3 |
| 20260901165114 | 71 | 96 | 2.6 | 7.0 | 0.00 | 0.00 | 0.00 | 70 | 1017.3 |
| 20260901163631 | 71 | 78 | 2.6 | 7.8 | 0.00 | 0.00 | 0.00 | 67 | 1017.5 |
| 20260901163119 | 71 | 57 | 3.5 | 7.0 | 0.00 | 0.00 | 0.00 | 69 | 1017.3 |
| 20260901161632 | 71 | 74 | 2.6 | 7.0 | 0.00 | 0.00 | 0.00 | 69 | 1017.4 |
| 20260901161555 | 71 | 121 | 3.5 | 7.8 | 0.00 | 0.00 | 0.00 | 69 | 1017.5 |
| 20260901155632 | 70 | 74 | 1.7 | 7.8 | 0.00 | 0.00 | 0.00 | 69 | 1017.5 |
| 20260901154632 | 69 | 92 | 2.6 | 7.8 | 0.00 | 0.00 | 0.00 | 70 | 1017.5 |
| 20260901154112 | 69 | 52 | 1.7 | 7.0 | 0.00 | 0.00 | 0.00 | 70 | 1017.7 |
| 20260901152628 | 68 | 68 | 2.6 | 7.8 | 0.00 | 0.00 | 0.00 | 70 | 1017.6 |
| 20260901151628 | 68 | 29 | 2.6 | 6.1 | 0.00 | 0.00 | 0.00 | 71 | 1017.5 |
| 20260901150626 | 68 | 58 | 2.6 | 7.0 | 0.00 | 0.00 | 0.00 | 71 | 1017.6 |
| 20260901145627 | 67 | 35 | 2.6 | 7.0 | 0.00 | 0.00 | 0.00 | 73 | 1017.6 |
| 20260901144626 | 67 | 34 | 2.6 | 9.6 | 0.00 | 0.00 | 0.00 | 71 | 1017.7 |
| 20260901144109 | 66 | 25 | 4.3 | 9.6 | 0.00 | 0.00 | 0.00 | 71 | 1017.8 |
| 20260901142626 | 65 | 77 | 4.3 | 11.3 | 0.00 | 0.00 | 0.00 | 72 | 1017.8 |
| 20260901142108 | 65 | 90 | 3.5 | 8.7 | 0.00 | 0.00 | 0.00 | 71 | 1017.8 |
| 20260901140624 | 66 | 36 | 3.5 | 8.7 | 0.00 | 0.00 | 0.00 | 73 | 1017.8 |
| 20260901135618 | 65 | 48 | 3.5 | 7.0 | 0.00 | 0.00 | 0.00 | 73 | 1017.9 |
| 20260901134618 | 65 | 86 | 2.6 | 6.1 | 0.00 | 0.00 | 0.00 | 74 | 1018.0 |
| 20260901133618 | 64 | 117 | 0.9 | 7.0 | 0.00 | 0.00 | 0.00 | 74 | 1018.1 |
| 20260901132616 | 63 | 68 | 2.6 | 6.1 | 0.00 | 0.00 | 0.00 | 74 | 1018.1 |
| 20260901131617 | 62 | 177 | 2.6 | 8.7 | 0.00 | 0.00 | 0.00 | 74 | 1018.0 |
| 20260901130616 | 61 | 51 | 3.5 | 8.7 | 0.00 | 0.00 | 0.00 | 73 | 1018.1 |
| 20260901125616 | 60 | 44 | 2.6 | 7.0 | 0.00 | 0.00 | 0.00 | 69 | 1018.0 |
| 20260901124617 | 60 | 26 | 1.7 | 6.1 | 0.00 | 0.00 | 0.00 | 65 | 1018.0 |
| 20260901123616 | 59 | 5 | 1.7 | 4.3 | 0.00 | 0.00 | 0.00 | 61 | 1017.9 |
| 20260901122611 | 58 | 46 | 1.7 | 4.3 | 0.00 | 0.00 | 0.00 | 59 | 1017.8 |
| 20260901121610 | 58 | 26 | 0.9 | 3.5 | 0.00 | 0.00 | 0.00 | 56 | 1017.8 |
| 20260901121518 | 57 | 59 | 0.9 | 4.3 | 0.00 | 0.00 | 0.00 | 56 | 1017.7 |
| 20260901115608 | 56 | 39 | 0.9 | 4.3 | 0.00 | 0.00 | 0.00 | 55 | 1017.8 |
| 20260901114608 | 56 | 39 | 0.9 | 3.5 | 0.00 | 0.00 | 0.00 | 55 | 1017.5 |
| 20260901113608 | 55 | 39 | 0.0 | 2.6 | 0.00 | 0.00 | 0.00 | 55 | 1017.7 |
| 20260901112608 | 55 | 21 | 0.9 | 2.6 | 0.00 | 0.00 | 0.00 | 55 | 1017.7 |
| 20260901111609 | 53 | 36 | 0.0 | 3.5 | 0.00 | 0.00 | 0.00 | 56 | 1017.6 |
| 20260901110607 | 52 | 67 | 1.7 | 4.3 | 0.00 | 0.00 | 0.00 | 57 | 1017.4 |
| 20260901110039 | 49 | 55 | 0.9 | 3.5 | 0.00 | 0.00 | 0.00 | 59 | 1017.3 |
| 20260901104601 | 47 | 84 | 0.0 | 0.0 | 0.00 | 0.00 | 0.00 | 60 | 1017.3 |
| 20260901103600 | 47 | 9 | 0.0 | 0.0 | 0.00 | 0.00 | 0.00 | 60 | 1017.3 |
| 20260901102600 | 46 | 9 | 0.0 | 0.0 | 0.00 | 0.00 | 0.00 | 61 | 1017.2 |
| 20260901101601 | 46 | 9 | 0.0 | 0.0 | 0.00 | 0.00 | 0.00 | 61 | 1017.1 |
| 20260901100601 | 47 | 9 | 0.0 | 0.0 | 0.00 | 0.00 | 0.00 | 61 | 1017.1 |
| 20260901095600 | 47 | 9 | 0.0 | 0.0 | 0.00 | 0.00 | 0.00 | 61 | 1017.0 |
| 20260901094601 | 47 | 9 | 0.0 | 0.0 | 0.00 | 0.00 | 0.00 | 60 | 1017.0 |
| 20260901094035 | 47 | 281 | 0.0 | 0.0 | 0.00 | 0.00 | 0.00 | 60 | 1017.0 |
| 20260901092601 | 47 | 281 | 0.0 | 0.0 | 0.00 | 0.00 | 0.00 | 60 | 1016.9 |
| 20260901092528 | 47 | 281 | 0.0 | 0.0 | 0.00 | 0.00 | 0.00 | 61 | 1016.9 |
| 20260901090601 | 47 | 281 | 0.0 | 0.0 | 0.00 | 0.00 | 0.00 | 61 | 1016.9 |
| 20260901085601 | 47 | 281 | 0.0 | 0.0 | 0.00 | 0.00 | 0.00 | 61 | 1017.0 |
| 20260901084601 | 47 | 281 | 0.0 | 0.0 | 0.00 | 0.00 | 0.00 | 61 | 1017.0 |
| 20260901083601 | 47 | 281 | 0.0 | 0.0 | 0.00 | 0.00 | 0.00 | 61 | 1017.0 |
| 20260901082601 | 47 | 281 | 0.0 | 0.0 | 0.00 | 0.00 | 0.00 | 61 | 1017.0 |
| 20260901081601 | 47 | 281 | 0.0 | 0.0 | 0.00 | 0.00 | 0.00 | 61 | 1017.0 |
| 20260901080601 | 48 | 281 | 0.0 | 0.0 | 0.00 | 0.00 | 0.00 | 61 | 1017.0 |
| 20260901075601 | 48 | 281 | 0.0 | 0.0 | 0.00 | 0.00 | 0.00 | 61 | 1016.9 |
| 20260901075038 | 48 | 281 | 0.0 | 0.0 | 0.00 | 0.00 | 0.00 | 61 | 1017.0 |
| 20260901073602 | 48 | 281 | 0.0 | 0.0 | 0.00 | 0.00 | 0.00 | 61 | 1017.0 |
| 20260901073044 | 49 | 281 | 0.0 | 0.0 | 0.00 | 0.00 | 0.00 | 61 | 1017.0 |
| 20260901072039 | 49 | 281 | 0.0 | 0.0 | 0.00 | 0.00 | 0.00 | 61 | 1017.0 |
| 20260901070601 | 49 | 281 | 0.0 | 0.0 | 0.00 | 0.00 | 0.00 | 61 | 1017.2 |
| 20260901065600 | 49 | 281 | 0.0 | 0.0 | 0.00 | 0.00 | 0.00 | 61 | 1017.1 |
| 20260901064601 | 49 | 281 | 0.0 | 0.0 | 0.00 | 0.00 | 0.00 | 62 | 1017.1 |
| 20260901063601 | 49 | 281 | 0.0 | 0.0 | 0.00 | 0.00 | 0.00 | 61 | 1017.2 |
| 20260901062600 | 49 | 281 | 0.0 | 0.0 | 0.00 | 0.00 | 0.00 | 62 | 1017.2 |
| 20260901061601 | 49 | 281 | 0.0 | 0.0 | 0.00 | 0.01 | 0.00 | 62 | 1017.2 |
| 20260901061041 | 49 | 281 | 0.0 | 0.0 | 0.00 | 0.01 | 0.00 | 63 | 1017.2 |